| time (UTC) | temp F | wind direction | speed MPH | gust MPH | rain 1hr in | rain 24hr in | rain mn in | humidity % | barometer mb |
| 20260510020656 | 65 | 75 | 1.0 | 3.0 | 0.00 | 0.09 | 0.02 | 81 | 994.4 |
| 20260510020155 | 65 | 75 | 1.0 | 3.0 | 0.00 | 0.09 | 0.02 | 81 | 994.3 |
| 20260510015655 | 65 | 75 | 1.0 | 2.0 | 0.00 | 0.09 | 0.02 | 81 | 994.3 |
| 20260510015154 | 66 | 75 | 1.0 | 2.0 | 0.00 | 0.09 | 0.02 | 80 | 994.2 |
| 20260510014655 | 67 | 71 | 0.0 | 2.0 | 0.00 | 0.09 | 0.02 | 79 | 994.2 |
| 20260510014154 | 67 | 71 | 0.0 | 2.0 | 0.00 | 0.09 | 0.02 | 79 | 994.0 |
| 20260510013654 | 67 | 71 | 2.0 | 2.0 | 0.00 | 0.09 | 0.02 | 79 | 994.0 |
| 20260510013154 | 67 | 71 | 1.0 | 2.0 | 0.00 | 0.09 | 0.02 | 78 | 993.9 |
| 20260510012653 | 68 | 71 | 0.0 | 2.0 | 0.00 | 0.09 | 0.02 | 77 | 993.9 |
| 20260510012153 | 68 | 71 | 0.0 | 2.0 | 0.00 | 0.09 | 0.02 | 77 | 993.8 |
| 20260510011653 | 69 | 71 | 1.0 | 2.0 | 0.00 | 0.09 | 0.02 | 76 | 993.7 |
| 20260510011152 | 69 | 71 | 2.0 | 3.0 | 0.00 | 0.09 | 0.02 | 75 | 993.6 |
| 20260510010652 | 69 | 71 | 2.0 | 3.0 | 0.00 | 0.09 | 0.02 | 75 | 993.6 |
| 20260510010153 | 70 | 71 | 1.0 | 3.0 | 0.00 | 0.09 | 0.02 | 72 | 993.4 |
| 20260510005652 | 71 | 71 | 2.0 | 3.0 | 0.00 | 0.09 | 0.02 | 72 | 993.3 |
| 20260510005152 | 71 | 71 | 2.0 | 3.0 | 0.00 | 0.09 | 0.02 | 71 | 993.4 |
| 20260510004924 | 72 | 71 | 2.0 | 3.0 | 0.00 | 0.09 | 0.02 | 69 | 993.3 |
| 20260510004423 | 73 | 71 | 2.0 | 3.0 | 0.00 | 0.09 | 0.02 | 67 | 993.2 |
| 20260510003652 | 74 | 71 | 2.0 | 3.0 | 0.00 | 0.09 | 0.02 | 66 | 993.0 |
| 20260510003150 | 75 | 69 | 2.0 | 3.0 | 0.00 | 0.09 | 0.02 | 63 | 993.0 |
| 20260510002653 | 76 | 69 | 2.0 | 3.0 | 0.00 | 0.09 | 0.02 | 59 | 992.9 |
| 20260510002152 | 77 | 69 | 2.0 | 2.0 | 0.00 | 0.09 | 0.02 | 56 | 992.8 |
| 20260510001652 | 78 | 71 | 0.0 | 2.0 | 0.00 | 0.09 | 0.02 | 54 | 992.8 |
| 20260510001424 | 79 | 69 | 1.0 | 2.0 | 0.00 | 0.09 | 0.02 | 50 | 992.8 |
| 20260510000651 | 80 | 71 | 0.0 | 1.0 | 0.00 | 0.09 | 0.02 | 47 | 992.8 |
| 20260510000422 | 80 | 69 | 0.0 | 1.0 | 0.00 | 0.09 | 0.02 | 45 | 992.8 |
| 20260509235650 | 80 | 71 | 0.0 | 2.0 | 0.00 | 0.09 | 0.02 | 44 | 992.8 |
| 20260509235151 | 81 | 283 | 1.0 | 2.0 | 0.00 | 0.09 | 0.02 | 42 | 992.7 |
| 20260509234652 | 81 | 283 | 0.0 | 1.0 | 0.00 | 0.09 | 0.02 | 41 | 992.7 |
| 20260509234151 | 82 | 283 | 0.0 | 1.0 | 0.00 | 0.09 | 0.02 | 41 | 992.6 |
| 20260509233652 | 82 | 283 | 0.0 | 1.0 | 0.00 | 0.09 | 0.02 | 40 | 992.8 |
| 20260509233151 | 82 | 312 | 1.0 | 1.0 | 0.00 | 0.09 | 0.02 | 39 | 992.7 |
| 20260509232650 | 82 | 312 | 1.0 | 1.0 | 0.00 | 0.09 | 0.02 | 39 | 992.8 |
| 20260509232150 | 83 | 312 | 0.0 | 1.0 | 0.00 | 0.09 | 0.02 | 41 | 992.8 |
| 20260509231649 | 83 | 312 | 0.0 | 1.0 | 0.00 | 0.09 | 0.02 | 41 | 992.8 |
| 20260509231149 | 83 | 312 | 0.0 | 0.0 | 0.00 | 0.09 | 0.02 | 41 | 992.7 |
| 20260509230649 | 83 | 18 | 0.0 | 1.0 | 0.00 | 0.09 | 0.02 | 39 | 992.8 |
| 20260509230147 | 83 | 18 | 0.0 | 1.0 | 0.00 | 0.09 | 0.02 | 39 | 992.6 |
| 20260509225648 | 83 | 18 | 0.0 | 1.0 | 0.00 | 0.09 | 0.02 | 37 | 992.6 |
| 20260509225147 | 83 | 18 | 0.0 | 2.0 | 0.00 | 0.09 | 0.02 | 37 | 992.5 |
| 20260509224645 | 83 | 18 | 1.0 | 2.0 | 0.00 | 0.09 | 0.02 | 37 | 992.5 |
| 20260509224145 | 0 | 18 | 1.0 | 1.0 | 0.00 | 0.09 | 0.02 | 992.5 | |
| 20260509223647 | 83 | 18 | 1.0 | 2.0 | 0.00 | 0.09 | 0.02 | 33 | 992.4 |
| 20260509223415 | 83 | 54 | 1.0 | 3.0 | 0.00 | 0.09 | 0.02 | 33 | 992.4 |
| 20260509222644 | 83 | 54 | 2.0 | 3.0 | 0.00 | 0.09 | 0.02 | 34 | 992.4 |
| 20260509222144 | 83 | 0 | 0.0 | 2.0 | 0.00 | 0.09 | 0.02 | 35 | 992.4 |
| 20260509221644 | 83 | 25 | 1.0 | 3.0 | 0.00 | 0.09 | 0.02 | 35 | 992.4 |
| 20260509221143 | 83 | 87 | 2.0 | 3.0 | 0.00 | 0.09 | 0.02 | 36 | 992.5 |
| 20260509220642 | 83 | 264 | 1.0 | 4.0 | 0.00 | 0.09 | 0.02 | 36 | 992.3 |
| 20260509220411 | 83 | 264 | 1.0 | 4.0 | 0.00 | 0.09 | 0.02 | 36 | 992.4 |
| 20260509215910 | 83 | 188 | 2.0 | 4.0 | 0.00 | 0.09 | 0.02 | 35 | 992.4 |
| 20260509215140 | 83 | 235 | 2.0 | 4.0 | 0.00 | 0.09 | 0.02 | 35 | 992.4 |
| 20260509214640 | 83 | 231 | 1.0 | 3.0 | 0.00 | 0.09 | 0.02 | 36 | 992.4 |
| 20260509214140 | 0 | 0.0 | 0.0 | 0.00 | 0.09 | 0.02 | 992.4 | ||
| 20260509213639 | 0 | 0.0 | 0.0 | 0.00 | 0.09 | 0.02 | 992.3 | ||
| 20260509213139 | 0 | 0.0 | 0.0 | 0.00 | 0.09 | 0.02 | 992.4 | ||
| 20260509212135 | 0 | 0.0 | 0.0 | 0.00 | 0.09 | 0.02 | 992.4 | ||
| 20260509211635 | 83 | 254 | 3.0 | 4.0 | 0.00 | 0.09 | 0.02 | 38 | 992.5 |
| 20260509211404 | 83 | 254 | 3.0 | 4.0 | 0.00 | 0.09 | 0.02 | 38 | 992.5 |
| 20260509210633 | 0 | 276 | 3.0 | 3.0 | 0.00 | 0.09 | 0.02 | 992.6 | |
| 20260509210133 | 0 | 0.0 | 0.0 | 0.00 | 0.09 | 0.02 | 992.6 | ||
| 20260509205631 | 0 | 0.0 | 0.0 | 0.00 | 0.09 | 0.02 | 992.6 | ||
| 20260509205130 | 0 | 0.0 | 0.0 | 0.00 | 0.09 | 0.02 | 992.7 | ||
| 20260509204629 | 0 | 0.0 | 0.0 | 0.00 | 0.09 | 0.02 | 992.7 | ||
| 20260509204128 | 0 | 0.0 | 0.0 | 0.00 | 0.09 | 0.02 | 992.7 | ||
| 20260509203627 | 0 | 0.0 | 0.0 | 0.00 | 0.09 | 0.02 | 992.8 | ||
| 20260509203125 | 0 | 0.0 | 0.0 | 0.00 | 0.09 | 0.02 | 992.8 | ||
| 20260509202624 | 84 | 281 | 4.0 | 10.0 | 0.00 | 0.09 | 0.02 | 37 | 992.9 |
| 20260509202124 | 84 | 281 | 4.0 | 10.0 | 0.00 | 0.09 | 0.02 | 37 | 992.9 |
| 20260509201624 | 84 | 293 | 1.0 | 5.0 | 0.00 | 0.09 | 0.02 | 40 | 993.0 |
| 20260509201125 | 84 | 245 | 1.0 | 5.0 | 0.00 | 0.09 | 0.02 | 37 | 993.0 |
| 20260509200854 | 84 | 292 | 1.0 | 3.0 | 0.00 | 0.09 | 0.02 | 37 | 993.2 |
| 20260509200124 | 83 | 224 | 2.0 | 7.0 | 0.00 | 0.09 | 0.02 | 41 | 993.2 |
| 20260509195854 | 83 | 31 | 3.0 | 7.0 | 0.00 | 0.09 | 0.02 | 41 | 993.3 |
| 20260509195122 | 83 | 264 | 5.0 | 6.0 | 0.00 | 0.09 | 0.02 | 38 | 993.3 |
| 20260509194622 | 83 | 251 | 3.0 | 3.0 | 0.00 | 0.09 | 0.02 | 44 | 993.3 |
| 20260509194122 | 0 | 219 | 4.0 | 4.0 | 0.00 | 0.09 | 0.02 | 993.4 | |
| 20260509193621 | 0 | 219 | 4.0 | 4.0 | 0.00 | 0.09 | 0.02 | 993.2 | |
| 20260509193121 | 0 | 0.0 | 0.0 | 0.00 | 0.09 | 0.02 | 993.4 | ||
| 20260509192619 | 83 | 207 | 4.0 | 5.0 | 0.00 | 0.09 | 0.02 | 44 | 993.5 |
| 20260509192121 | 83 | 207 | 4.0 | 6.0 | 0.00 | 0.09 | 0.02 | 44 | 993.5 |
| 20260509191618 | 0 | 214 | 6.0 | 6.0 | 0.00 | 0.09 | 0.02 | 993.5 | |
| 20260509191117 | 0 | 16 | 2.0 | 4.0 | 0.00 | 0.09 | 0.02 | 993.6 | |
| 20260509190617 | 82 | 102 | 2.0 | 4.0 | 0.00 | 0.09 | 0.02 | 47 | 993.6 |
| 20260509190116 | 82 | 128 | 2.0 | 4.0 | 0.00 | 0.09 | 0.02 | 47 | 993.6 |
| 20260509185853 | 82 | 13 | 3.0 | 4.0 | 0.00 | 0.09 | 0.02 | 48 | 993.6 |
| 20260509185117 | 81 | 82 | 1.0 | 7.0 | 0.00 | 0.09 | 0.02 | 47 | 993.6 |
| 20260509184617 | 81 | 18 | 5.0 | 7.0 | 0.00 | 0.09 | 0.02 | 50 | 993.6 |
| 20260509184117 | 81 | 351 | 2.0 | 5.0 | 0.00 | 0.09 | 0.02 | 47 | 993.6 |
| 20260509183615 | 81 | 224 | 2.0 | 7.0 | 0.00 | 0.09 | 0.02 | 47 | 993.6 |
| 20260509183116 | 81 | 248 | 5.0 | 7.0 | 0.00 | 0.09 | 0.02 | 55 | 993.6 |
| 20260509182615 | 0 | 0.0 | 0.0 | 0.00 | 0.09 | 0.02 | 993.6 | ||
| 20260509182114 | 80 | 238 | 1.0 | 7.0 | 0.00 | 0.09 | 0.02 | 55 | 993.7 |
| 20260509181613 | 80 | 238 | 1.0 | 7.0 | 0.00 | 0.09 | 0.02 | 55 | 993.6 |
| 20260509181117 | 80 | 276 | 2.0 | 4.0 | 0.00 | 0.09 | 0.02 | 55 | 993.8 |
| 20260509180613 | 80 | 221 | 2.0 | 3.0 | 0.00 | 0.09 | 0.02 | 55 | 993.7 |
| 20260509180344 | 80 | 182 | 2.0 | 3.0 | 0.00 | 0.09 | 0.02 | 62 | 993.8 |
| 20260509175613 | 0 | 180 | 2.0 | 3.0 | 0.00 | 0.09 | 0.02 | 993.9 | |
| 20260509175112 | 0 | 180 | 2.0 | 3.0 | 0.00 | 0.09 | 0.02 | 993.9 | |
| 20260509174612 | 78 | 197 | 2.0 | 3.0 | 0.00 | 0.09 | 0.02 | 63 | 993.9 |
| 20260509174113 | 78 | 197 | 2.0 | 3.0 | 0.00 | 0.09 | 0.02 | 63 | 993.9 |
| 20260509173842 | 76 | 188 | 2.0 | 5.0 | 0.00 | 0.09 | 0.02 | 66 | 994.0 |
| 20260509173110 | 76 | 188 | 2.0 | 5.0 | 0.00 | 0.09 | 0.02 | 66 | 994.1 |
| 20260509172610 | 76 | 199 | 3.0 | 5.0 | 0.00 | 0.09 | 0.02 | 68 | 994.1 |
| 20260509172109 | 0 | 78 | 2.0 | 2.0 | 0.00 | 0.09 | 0.02 | 994.1 | |
| 20260509171609 | 0 | 78 | 2.0 | 2.0 | 0.00 | 0.09 | 0.02 | 994.1 | |
| 20260509171109 | 74 | 237 | 0.0 | 0.0 | 0.00 | 0.09 | 0.02 | 72 | 994.1 |
| 20260509170607 | 74 | 237 | 0.0 | 0.0 | 0.00 | 0.09 | 0.02 | 72 | 994.2 |
| 20260509170108 | 74 | 206 | 2.0 | 3.0 | 0.00 | 0.09 | 0.02 | 72 | 994.2 |
| 20260509165606 | 74 | 206 | 2.0 | 6.0 | 0.00 | 0.09 | 0.02 | 72 | 994.2 |
| 20260509165106 | 74 | 248 | 4.0 | 6.0 | 0.00 | 0.09 | 0.02 | 74 | 994.2 |
| 20260509164606 | 73 | 171 | 2.0 | 4.0 | 0.00 | 0.09 | 0.02 | 74 | 994.2 |
| 20260509164105 | 73 | 237 | 0.0 | 2.0 | 0.00 | 0.09 | 0.02 | 77 | 994.3 |
| 20260509163605 | 71 | 230 | 1.0 | 3.0 | 0.00 | 0.09 | 0.02 | 77 | 994.3 |
| 20260509163104 | 71 | 230 | 2.0 | 3.0 | 0.00 | 0.09 | 0.02 | 77 | 994.3 |
| 20260509162605 | 0 | 0.0 | 0.0 | 0.00 | 0.09 | 0.02 | 994.4 | ||
| 20260509162103 | 69 | 212 | 5.0 | 6.0 | 0.00 | 0.09 | 0.02 | 85 | 994.4 |
| 20260509161602 | 69 | 212 | 5.0 | 6.0 | 0.00 | 0.09 | 0.02 | 85 | 994.4 |
| 20260509161102 | 69 | 217 | 5.0 | 6.0 | 0.00 | 0.09 | 0.02 | 88 | 994.5 |
| 20260509160603 | 67 | 250 | 2.0 | 3.0 | 0.00 | 0.09 | 0.02 | 89 | 994.4 |
| 20260509160333 | 67 | 250 | 2.0 | 4.0 | 0.00 | 0.09 | 0.02 | 89 | 994.5 |
| 20260509155600 | 67 | 250 | 3.0 | 4.0 | 0.00 | 0.09 | 0.02 | 88 | 994.4 |
| 20260509155100 | 67 | 164 | 2.0 | 3.0 | 0.00 | 0.09 | 0.02 | 90 | 994.4 |
| 20260509154604 | 66 | 18 | 0.0 | 4.0 | 0.00 | 0.09 | 0.02 | 93 | 994.4 |
| 20260509154100 | 65 | 30 | 1.0 | 4.0 | 0.00 | 0.09 | 0.02 | 93 | 994.3 |
| 20260509153833 | 64 | 111 | 1.0 | 4.0 | 0.00 | 0.09 | 0.02 | 96 | 994.4 |
| 20260509153101 | 64 | 20 | 2.0 | 4.0 | 0.00 | 0.09 | 0.02 | 97 | 994.4 |
| 20260509152832 | 63 | 135 | 1.0 | 2.0 | 0.00 | 0.09 | 0.02 | 96 | 994.3 |
| 20260509151559 | 62 | 48 | 2.0 | 5.0 | 0.00 | 0.09 | 0.02 | 99 | 994.3 |
| 20260509151329 | 62 | 331 | 0.0 | 3.0 | 0.00 | 0.09 | 0.02 | 99 | 994.4 |
| 20260509150558 | 62 | 331 | 0.0 | 3.0 | 0.00 | 0.09 | 0.02 | 99 | 994.4 |
| 20260509150056 | 61 | 209 | 0.0 | 1.0 | 0.00 | 0.09 | 0.02 | 98 | 994.4 |
| 20260509145556 | 60 | 85 | 0.0 | 3.0 | 0.00 | 0.09 | 0.02 | 98 | 994.3 |
| 20260509145056 | 60 | 94 | 1.0 | 3.0 | 0.00 | 0.09 | 0.02 | 98 | 994.4 |
| 20260509144557 | 58 | 73 | 2.0 | 3.0 | 0.00 | 0.09 | 0.02 | 98 | 994.4 |
| 20260509143554 | 57 | 6 | 0.0 | 1.0 | 0.00 | 0.09 | 0.02 | 97 | 994.4 |
| 20260509143054 | 57 | 6 | 0.0 | 2.0 | 0.00 | 0.09 | 0.02 | 97 | 994.5 |
| 20260509142551 | 57 | 6 | 2.0 | 2.0 | 0.00 | 0.09 | 0.02 | 97 | 994.4 |
| 20260509142052 | 56 | 4 | 2.0 | 4.0 | 0.00 | 0.09 | 0.02 | 97 | 994.5 |
| 20260509141551 | 56 | 4 | 2.0 | 4.0 | 0.00 | 0.09 | 0.02 | 97 | 994.4 |
| 20260509141052 | 56 | 292 | 2.0 | 3.0 | 0.00 | 0.09 | 0.02 | 97 | 994.5 |
| 20260509140551 | 56 | 289 | 0.0 | 2.0 | 0.00 | 0.09 | 0.02 | 97 | 994.4 |
| 20260509140052 | 56 | 49 | 1.0 | 2.0 | 0.00 | 0.09 | 0.02 | 97 | 994.4 |
| 20260509135551 | 56 | 224 | 1.0 | 3.0 | 0.00 | 0.09 | 0.02 | 97 | 994.4 |
| 20260509135050 | 56 | 228 | 1.0 | 3.0 | 0.00 | 0.09 | 0.02 | 97 | 994.4 |
| 20260509134550 | 55 | 0 | 1.0 | 2.0 | 0.00 | 0.09 | 0.02 | 97 | 994.4 |
| 20260509134049 | 55 | 0 | 1.0 | 2.0 | 0.00 | 0.09 | 0.02 | 97 | 994.3 |
| 20260509133549 | 55 | 0 | 0.0 | 3.0 | 0.00 | 0.09 | 0.02 | 97 | 994.3 |
| 20260509133049 | 55 | 0 | 1.0 | 3.0 | 0.00 | 0.09 | 0.02 | 97 | 994.3 |
| 20260509132550 | 55 | 293 | 0.0 | 0.0 | 0.00 | 0.09 | 0.02 | 97 | 994.3 |
| 20260509132049 | 54 | 293 | 0.0 | 4.0 | 0.00 | 0.09 | 0.02 | 96 | 994.3 |
| 20260509131550 | 54 | 0 | 0.0 | 4.0 | 0.00 | 0.09 | 0.02 | 96 | 994.2 |
| 20260509131049 | 54 | 11 | 2.0 | 2.0 | 0.00 | 0.09 | 0.02 | 97 | 994.2 |
| 20260509130549 | 54 | 11 | 0.0 | 2.0 | 0.00 | 0.09 | 0.02 | 97 | 994.1 |
| 20260509130048 | 54 | 11 | 1.0 | 3.0 | 0.00 | 0.09 | 0.02 | 97 | 994.0 |
| 20260509125549 | 53 | 11 | 0.0 | 3.0 | 0.00 | 0.09 | 0.02 | 96 | 994.0 |
| 20260509125049 | 53 | 11 | 2.0 | 3.0 | 0.00 | 0.09 | 0.02 | 97 | 994.0 |
| 20260509124549 | 53 | 28 | 0.0 | 1.0 | 0.00 | 0.09 | 0.02 | 97 | 993.9 |
| 20260509124048 | 53 | 309 | 0.0 | 2.0 | 0.00 | 0.09 | 0.02 | 97 | 994.0 |
| 20260509123549 | 53 | 275 | 0.0 | 2.0 | 0.00 | 0.09 | 0.02 | 96 | 993.9 |
| 20260509123049 | 53 | 275 | 0.0 | 3.0 | 0.01 | 0.09 | 0.02 | 96 | 993.9 |
| 20260509122549 | 53 | 275 | 1.0 | 3.0 | 0.01 | 0.09 | 0.02 | 96 | 993.8 |
| 20260509122048 | 53 | 275 | 2.0 | 3.0 | 0.01 | 0.09 | 0.02 | 96 | 993.9 |
| 20260509121548 | 53 | 275 | 2.0 | 2.0 | 0.01 | 0.09 | 0.02 | 96 | 993.8 |
| 20260509121048 | 53 | 275 | 2.0 | 4.0 | 0.01 | 0.09 | 0.02 | 96 | 993.7 |
| 20260509120548 | 53 | 275 | 3.0 | 4.0 | 0.01 | 0.09 | 0.02 | 96 | 993.6 |
| 20260509120045 | 53 | 276 | 2.0 | 3.0 | 0.01 | 0.09 | 0.02 | 96 | 993.4 |
| 20260509115548 | 53 | 278 | 2.0 | 3.0 | 0.01 | 0.09 | 0.02 | 96 | 993.4 |
| 20260509115047 | 53 | 298 | 2.0 | 3.0 | 0.01 | 0.09 | 0.02 | 96 | 993.3 |
| 20260509114547 | 53 | 298 | 1.0 | 3.0 | 0.01 | 0.09 | 0.02 | 96 | 993.3 |
| 20260509114316 | 53 | 298 | 2.0 | 3.0 | 0.01 | 0.09 | 0.02 | 96 | 993.2 |
| 20260509113545 | 53 | 230 | 2.0 | 3.0 | 0.01 | 0.09 | 0.02 | 96 | 993.1 |
| 20260509113317 | 53 | 230 | 1.0 | 2.0 | 0.00 | 0.08 | 0.01 | 96 | 993.0 |
| 20260509112546 | 53 | 230 | 1.0 | 2.0 | 0.00 | 0.08 | 0.01 | 96 | 992.9 |
| 20260509112045 | 53 | 230 | 0.0 | 2.0 | 0.00 | 0.08 | 0.01 | 96 | 992.9 |
| 20260509111546 | 54 | 230 | 1.0 | 2.0 | 0.00 | 0.08 | 0.01 | 96 | 993.0 |
| 20260509111045 | 54 | 230 | 1.0 | 2.0 | 0.00 | 0.08 | 0.01 | 96 | 993.0 |
| 20260509110545 | 54 | 230 | 0.0 | 1.0 | 0.00 | 0.08 | 0.01 | 96 | 992.8 |
| 20260509110045 | 54 | 230 | 0.0 | 1.0 | 0.00 | 0.08 | 0.01 | 95 | 992.7 |
| 20260509105545 | 54 | 230 | 0.0 | 1.0 | 0.00 | 0.08 | 0.01 | 95 | 992.8 |
| 20260509105045 | 54 | 230 | 0.0 | 2.0 | 0.00 | 0.08 | 0.01 | 95 | 992.8 |
| 20260509104545 | 54 | 230 | 1.0 | 2.0 | 0.00 | 0.08 | 0.01 | 95 | 992.8 |
| 20260509104318 | 54 | 230 | 1.0 | 2.0 | 0.00 | 0.08 | 0.01 | 95 | 992.8 |
| 20260509103545 | 54 | 230 | 0.0 | 2.0 | 0.00 | 0.08 | 0.01 | 95 | 992.7 |
| 20260509103043 | 54 | 230 | 0.0 | 1.0 | 0.00 | 0.08 | 0.01 | 95 | 992.7 |
| 20260509102548 | 54 | 230 | 0.0 | 2.0 | 0.00 | 0.08 | 0.01 | 95 | 992.7 |
| 20260509102045 | 54 | 230 | 0.0 | 2.0 | 0.00 | 0.08 | 0.01 | 95 | 992.7 |
| 20260509101544 | 54 | 230 | 0.0 | 2.0 | 0.00 | 0.08 | 0.01 | 95 | 992.5 |
| 20260509101045 | 54 | 230 | 1.0 | 2.0 | 0.00 | 0.08 | 0.01 | 95 | 992.7 |
| 20260509100543 | 54 | 230 | 0.0 | 1.0 | 0.00 | 0.08 | 0.01 | 95 | 992.8 |
| 20260509100045 | 55 | 230 | 0.0 | 1.0 | 0.00 | 0.08 | 0.01 | 95 | 992.8 |
| 20260509095543 | 55 | 230 | 0.0 | 1.0 | 0.00 | 0.08 | 0.01 | 95 | 992.8 |
| 20260509095315 | 55 | 230 | 0.0 | 1.0 | 0.00 | 0.08 | 0.01 | 95 | 992.9 |
| 20260509094544 | 55 | 230 | 0.0 | 2.0 | 0.00 | 0.08 | 0.01 | 95 | 993.0 |
| 20260509094043 | 55 | 230 | 0.0 | 2.0 | 0.00 | 0.08 | 0.01 | 95 | 993.1 |
| 20260509093542 | 55 | 230 | 1.0 | 2.0 | 0.00 | 0.08 | 0.01 | 95 | 992.9 |
| 20260509093043 | 55 | 230 | 0.0 | 1.0 | 0.00 | 0.08 | 0.01 | 94 | 993.0 |
| 20260509092543 | 55 | 230 | 0.0 | 1.0 | 0.00 | 0.08 | 0.01 | 94 | 993.0 |
| 20260509091543 | 56 | 90 | 0.0 | 1.0 | 0.00 | 0.08 | 0.01 | 95 | 993.0 |
| 20260509091043 | 56 | 90 | 0.0 | 1.0 | 0.00 | 0.08 | 0.01 | 95 | 993.0 |
| 20260509090814 | 56 | 90 | 0.0 | 1.0 | 0.00 | 0.08 | 0.01 | 95 | 992.9 |
| 20260509090047 | 56 | 90 | 0.0 | 2.0 | 0.00 | 0.08 | 0.01 | 95 | 992.7 |
| 20260509085542 | 56 | 90 | 0.0 | 2.0 | 0.00 | 0.08 | 0.01 | 95 | 992.5 |
| 20260509085042 | 56 | 90 | 0.0 | 1.0 | 0.00 | 0.08 | 0.01 | 94 | 992.5 |
| 20260509084543 | 56 | 90 | 1.0 | 1.0 | 0.00 | 0.08 | 0.01 | 94 | 992.4 |
| 20260509084042 | 56 | 90 | 1.0 | 1.0 | 0.00 | 0.08 | 0.01 | 94 | 992.4 |
| 20260509083542 | 56 | 90 | 0.0 | 0.0 | 0.00 | 0.08 | 0.01 | 94 | 992.4 |
| 20260509083042 | 56 | 90 | 0.0 | 0.0 | 0.00 | 0.08 | 0.01 | 94 | 992.5 |
| 20260509082542 | 56 | 90 | 0.0 | 0.0 | 0.00 | 0.08 | 0.01 | 94 | 992.4 |
| 20260509082042 | 56 | 90 | 0.0 | 0.0 | 0.00 | 0.08 | 0.01 | 94 | 992.4 |
| 20260509081541 | 56 | 90 | 0.0 | 2.0 | 0.00 | 0.08 | 0.01 | 94 | 992.3 |
| 20260509081041 | 56 | 90 | 0.0 | 2.0 | 0.00 | 0.08 | 0.01 | 94 | 992.3 |
| 20260509080541 | 56 | 90 | 1.0 | 2.0 | 0.00 | 0.08 | 0.01 | 94 | 992.1 |
| 20260509080044 | 57 | 90 | 0.0 | 2.0 | 0.00 | 0.08 | 0.01 | 94 | 992.2 |
| 20260509075540 | 57 | 90 | 1.0 | 2.0 | 0.00 | 0.08 | 0.01 | 94 | 992.1 |
| 20260509075040 | 57 | 90 | 0.0 | 1.0 | 0.00 | 0.08 | 0.01 | 94 | 992.2 |
| 20260509074541 | 57 | 90 | 0.0 | 1.0 | 0.00 | 0.08 | 0.01 | 94 | 992.3 |
| 20260509074041 | 57 | 90 | 0.0 | 1.0 | 0.00 | 0.08 | 0.01 | 93 | 992.2 |
| 20260509073541 | 57 | 90 | 0.0 | 0.0 | 0.00 | 0.08 | 0.01 | 93 | 992.3 |
| 20260509073041 | 57 | 90 | 0.0 | 0.0 | 0.00 | 0.08 | 0.01 | 93 | 992.3 |
| 20260509072539 | 57 | 90 | 0.0 | 0.0 | 0.00 | 0.08 | 0.01 | 93 | 992.3 |
| 20260509072041 | 57 | 90 | 0.0 | 1.0 | 0.00 | 0.08 | 0.01 | 93 | 992.3 |
| 20260509071538 | 57 | 90 | 0.0 | 1.0 | 0.00 | 0.08 | 0.01 | 93 | 992.3 |
| 20260509071041 | 57 | 90 | 0.0 | 1.0 | 0.00 | 0.08 | 0.01 | 93 | 992.2 |
| 20260509070540 | 57 | 90 | 0.0 | 1.0 | 0.00 | 0.08 | 0.01 | 92 | 992.2 |
| 20260509070313 | 58 | 90 | 0.0 | 0.0 | 0.00 | 0.08 | 0.01 | 92 | 992.3 |
| 20260509065541 | 58 | 90 | 0.0 | 1.0 | 0.00 | 0.08 | 0.01 | 92 | 992.2 |
| 20260509065041 | 58 | 90 | 0.0 | 1.0 | 0.00 | 0.08 | 0.01 | 92 | 992.2 |
| 20260509064538 | 58 | 90 | 0.0 | 1.0 | 0.00 | 0.08 | 0.01 | 92 | 992.3 |
| 20260509064040 | 58 | 90 | 0.0 | 1.0 | 0.00 | 0.08 | 0.01 | 92 | 992.3 |
| 20260509063537 | 58 | 90 | 0.0 | 0.0 | 0.00 | 0.08 | 0.01 | 91 | 992.5 |
| 20260509063039 | 59 | 90 | 0.0 | 2.0 | 0.00 | 0.08 | 0.01 | 91 | 992.5 |
| 20260509062539 | 59 | 90 | 0.0 | 2.0 | 0.00 | 0.08 | 0.01 | 91 | 992.6 |
| 20260509062038 | 59 | 90 | 1.0 | 2.0 | 0.00 | 0.08 | 0.01 | 91 | 992.5 |
| 20260509061540 | 59 | 90 | 0.0 | 2.0 | 0.00 | 0.08 | 0.01 | 91 | 992.6 |
| 20260509061310 | 59 | 90 | 0.0 | 0.0 | 0.00 | 0.08 | 0.01 | 91 | 992.6 |
| 20260509060538 | 59 | 90 | 0.0 | 0.0 | 0.01 | 0.08 | 0.01 | 91 | 992.6 |
| 20260509055539 | 59 | 90 | 0.0 | 0.0 | 0.02 | 0.08 | 0.01 | 89 | 992.6 |
| 20260509055038 | 59 | 90 | 0.0 | 0.0 | 0.08 | 0.08 | 0.01 | 89 | 992.8 |
| 20260509054538 | 60 | 90 | 0.0 | 0.0 | 0.08 | 0.08 | 0.01 | 89 | 993.0 |
| 20260509054037 | 60 | 90 | 0.0 | 0.0 | 0.08 | 0.08 | 0.01 | 89 | 993.1 |
| 20260509053538 | 60 | 90 | 0.0 | 1.0 | 0.08 | 0.08 | 0.01 | 88 | 993.1 |
| 20260509053039 | 60 | 90 | 0.0 | 1.0 | 0.08 | 0.08 | 0.01 | 88 | 993.0 |
| 20260509052538 | 60 | 90 | 0.0 | 0.0 | 0.08 | 0.08 | 0.01 | 87 | 993.1 |
| 20260509052036 | 60 | 90 | 0.0 | 3.0 | 0.08 | 0.08 | 0.01 | 87 | 993.3 |
| 20260509051537 | 61 | 90 | 1.0 | 4.0 | 0.08 | 0.08 | 0.01 | 87 | 993.3 |
| 20260509051038 | 61 | 85 | 2.0 | 4.0 | 0.08 | 0.08 | 0.01 | 86 | 993.6 |
| 20260509050538 | 63 | 188 | 4.0 | 4.0 | 0.07 | 0.07 | 0.00 | 77 | 993.2 |
| 20260509050036 | 63 | 188 | 4.0 | 7.0 | 0.07 | 0.07 | 0.00 | 77 | 992.4 |
| 20260509045536 | 63 | 248 | 5.0 | 7.0 | 0.06 | 0.06 | 0.06 | 77 | 993.0 |
| 20260509045035 | 67 | 176 | 3.0 | 5.0 | 0.00 | 0.00 | 0.00 | 65 | 993.9 |
| 20260509044536 | 67 | 176 | 3.0 | 6.0 | 0.00 | 0.00 | 0.00 | 65 | 993.9 |
| 20260509043307 | 67 | 275 | 4.0 | 7.0 | 0.00 | 0.00 | 0.00 | 65 | 991.4 |
| 20260509042535 | 67 | 248 | 4.0 | 7.0 | 0.00 | 0.00 | 0.00 | 65 | 991.7 |
| 20260509042034 | 67 | 268 | 4.0 | 10.0 | 0.00 | 0.00 | 0.00 | 65 | 991.6 |
| 20260509041535 | 67 | 250 | 6.0 | 10.0 | 0.00 | 0.00 | 0.00 | 65 | 991.4 |
| 20260509041035 | 67 | 234 | 5.0 | 7.0 | 0.00 | 0.00 | 0.00 | 65 | 991.4 |
| 20260509040535 | 67 | 245 | 5.0 | 9.0 | 0.00 | 0.00 | 0.00 | 65 | 991.5 |
| 20260509040035 | 67 | 268 | 5.0 | 9.0 | 0.00 | 0.00 | 0.00 | 65 | 991.5 |
| 20260509035540 | 67 | 252 | 5.0 | 6.0 | 0.00 | 0.00 | 0.00 | 66 | 991.6 |
| 20260509035306 | 67 | 257 | 4.0 | 7.0 | 0.00 | 0.00 | 0.00 | 66 | 991.6 |
| 20260509034804 | 67 | 251 | 4.0 | 9.0 | 0.00 | 0.00 | 0.00 | 66 | 991.5 |
| 20260509034033 | 67 | 259 | 6.0 | 10.0 | 0.00 | 0.00 | 0.00 | 65 | 991.7 |
| 20260509033804 | 67 | 244 | 4.0 | 10.0 | 0.00 | 0.00 | 0.00 | 65 | 991.8 |
| 20260509033032 | 67 | 247 | 5.0 | 7.0 | 0.00 | 0.00 | 0.00 | 65 | 991.9 |
| 20260509032804 | 67 | 247 | 6.0 | 9.0 | 0.00 | 0.00 | 0.00 | 65 | 991.9 |
| 20260509032034 | 67 | 233 | 6.0 | 13.0 | 0.00 | 0.00 | 0.00 | 65 | 991.9 |
| 20260509031532 | 67 | 255 | 6.0 | 13.0 | 0.00 | 0.00 | 0.00 | 65 | 991.8 |
| 20260509031034 | 67 | 258 | 4.0 | 7.0 | 0.00 | 0.00 | 0.00 | 65 | 991.9 |
| 20260509030534 | 67 | 210 | 5.0 | 12.0 | 0.00 | 0.00 | 0.00 | 65 | 991.7 |
| 20260509030306 | 67 | 251 | 7.0 | 12.0 | 0.00 | 0.00 | 0.00 | 64 | 991.9 |
| 20260509025533 | 67 | 243 | 7.0 | 12.0 | 0.00 | 0.00 | 0.00 | 65 | 991.9 |
| 20260509025032 | 67 | 216 | 6.0 | 12.0 | 0.00 | 0.00 | 0.00 | 65 | 991.8 |
| 20260509024534 | 68 | 265 | 8.0 | 12.0 | 0.00 | 0.00 | 0.00 | 64 | 991.7 |
| 20260509024031 | 68 | 259 | 7.0 | 12.0 | 0.00 | 0.00 | 0.00 | 65 | 991.7 |
| 20260509023531 | 68 | 227 | 6.0 | 12.0 | 0.00 | 0.00 | 0.00 | 65 | 991.6 |
| 20260509023033 | 68 | 254 | 6.0 | 10.0 | 0.00 | 0.00 | 0.00 | 65 | 991.7 |
| 20260509022532 | 68 | 202 | 4.0 | 9.0 | 0.00 | 0.00 | 0.00 | 65 | 991.8 |
| 20260509022032 | 68 | 235 | 6.0 | 9.0 | 0.00 | 0.00 | 0.00 | 65 | 991.8 |
| 20260509021531 | 68 | 200 | 4.0 | 5.0 | 0.00 | 0.00 | 0.00 | 66 | 991.9 |